Back to catalog

STARLINK-31061

AliveCommunicationsVLEO
NORAD 58611·PAYLOAD·🇺🇸 United States

Launched Dec 19, 2023 from Cape Canaveral Space Force Station

Loading…

Next Passes (next 24 hours)

TLE

FreshSource: CelesTrak SupGP

Epoch: Sep 14, 2026, 20:43 UTC

1 58611C 23200Y   26257.86368056  .00006335  00000+0  22947-3 0  2572
2 58611  42.9994 180.6373 0001401 262.2505 355.2931 15.27571842    17

Track STARLINK-31061 in real time with AllMySat

Download on the App Store